Regional Weather Roundup
Issued by NWS Jackson, KY

Home | Current Version | Previous Version | Graphics & Text | Print | Product List | Glossary On
Versions: 1 2 3 4 5 6 7 8 9 10 11 12 13 14 15 16 17 18 19 20 21 22 23 24 25 26 27 28 29
000
ASUS43 KJKL 290310
RWRJKL

EAST KENTUCKY HOURLY WEATHER ROUNDUP
NATIONAL WEATHER SERVICE JACKSON KY
1100 PM EDT THU APR 28 2016

NOTE: "FAIR" INDICATES FEW OR NO CLOUDS BELOW 12,000 FEET WITH
NO SIGNIFICANT WEATHER AND/OR OBSTRUCTIONS TO VISIBILITY.

* THESE REPORTS ARE NOT UNDER NWS QUALITY CONTROL AND MAY NOT
  REPORT WEATHER SUCH AS PRECIPITATION AND FOG.

KYZ079-080-083-085-087-088-110-112-115-119-120-290400
...EASTERN KENTUCKY...

CITY           SKY/WX    TMP DP  RH WIND       PRES   REMARKS
JACKSON        CLEAR     68  55  63 VRB7      29.95R
LONDON         CLEAR     65  55  70 CALM      29.97R
SOMERSET*      CLEAR     61  54  77 CALM      29.98R
MONTICELLO*    CLEAR     60  56  86 NE9       29.99
WILLIAMSBURG*  CLEAR     64  52  63 CALM      29.98R
MIDDLESBORO*   CLEAR     61  57  86 CALM      29.97R
HARLAN APT*      N/A     61  57  88 CALM      29.97R
HAZARD APT*    CLEAR     70  55  60 W6        29.95R
BLACK MTN*       N/A     59  54  82 W2          N/A
PIKE CO APT*     N/A     65  57  76 S3        29.94R
BIG SANDY APT* CLEAR     62  61  98 CALM      29.93R
MOREHEAD APT*  CLEAR     64  50  59 NW5       29.96R
$$

KYZ035-036-041-042-044-050-067-078-099-290400
...CENTRAL KENTUCKY...

CITY           SKY/WX    TMP DP  RH WIND       PRES   REMARKS
MT STERLING*   CLEAR     63  50  63 NW6       29.97R
FLEMING/MASON* CLEAR     64  48  56 W5        29.95R
DANVILLE*      CLEAR     63  50  63 W3        29.97R
RICHMOND*      CLEAR     66  52  59 W5        29.95R
LEXINGTON      CLEAR     65  46  50 NW5       29.95R
FRANKFORT      CLEAR     59  50  72 CALM      29.93S
LOUISVILLE     PTCLDY    66  49  54 W6        29.95R
LEBANON*         N/A     63  50  63 S3        29.97R
BOWLING GREEN  CLEAR     67  51  56 W5        29.97R
$$

KYZ091>093-OHZ055-061-077-WVZ005-015-034-035-042-290400
...SOUTHERN OHIO/WEST VIRGINIA...

CITY           SKY/WX    TMP DP  RH WIND       PRES   REMARKS
COVINGTON      CLEAR     61  58  90 N6        29.94R
COLUMBUS       CLOUDY    55  51  86 N7        29.93S
DAYTON         CLOUDY    51  50  96 N7        29.96S FOG
WILMINGTON     CLEAR     56  53  90 N5        29.94R FOG
HUNTINGTON       N/A     64  59  83 N3        29.90R
CHARLESTON       N/A     63  60  90 N3        29.89S
BECKLEY          N/A     59  56  89 S5        29.97R
$$

VAZ002-007-008-TNZ017-027-036-066-071-290400
...SOUTHWEST VIRGINIA/EAST TENNESSEE...

CITY           SKY/WX    TMP DP  RH WIND       PRES   REMARKS
WISE*            N/A     63  48  59 W6        30.02R
BRISTOL        PTCLDY    64  56  75 CALM      29.95R
MORRISTOWN*    PTCLDY    72  57  60 W5        29.95R
SEVIERVILLE*   CLEAR     64  55  72 CALM      29.95R
KNOXVILLE      CLEAR     70  58  65 S5        29.95R
OAK RIDGE      CLEAR     69  57  65 CALM      29.97R
CROSSVILLE     CLEAR     66  54  65 W6        30.02R
NASHVILLE      CLEAR     70  51  51 CALM      29.98R
$$

...KEY TO REMARKS...
VSB - VISIBILITY IN MILES
WCI - WIND CHILL INDEX
HX  - HEAT INDEX

$$




USA.gov is the U.S. government's official web portal to all federal, state and local government web resources and services.